| time (UTC) | temp F | wind direction | speed knots | gust knots | rain 1hr in | rain 24hr in | rain mn in | humidity % | barometer mb |
| 20260506033032 | 60 | 0 | 0.0 | 0.0 | 0.00 | 0.02 | 0.02 | 74 | 1008.6 |
| 20260506031537 | 60 | 0 | 0.0 | 0.0 | 0.00 | 0.02 | 0.02 | 72 | 1008.7 |
| 20260506030030 | 61 | 0 | 0.0 | 0.0 | 0.00 | 0.02 | 0.02 | 70 | 1008.6 |
| 20260506024537 | 63 | 0 | 0.0 | 0.0 | 0.00 | 0.02 | 0.02 | 66 | 1008.7 |
| 20260506023027 | 64 | 0 | 0.0 | 0.0 | 0.00 | 0.02 | 0.02 | 63 | 1008.7 |
| 20260506021529 | 65 | 0 | 0.0 | 0.9 | 0.00 | 0.02 | 0.02 | 60 | 1008.7 |
| 20260506020028 | 66 | 299 | 0.0 | 0.9 | 0.00 | 0.02 | 0.02 | 57 | 1008.8 |
| 20260506014528 | 68 | 299 | 0.0 | 0.9 | 0.00 | 0.02 | 0.02 | 53 | 1008.7 |
| 20260506013032 | 70 | 299 | 0.0 | 1.7 | 0.00 | 0.02 | 0.02 | 50 | 1008.4 |
| 20260506011557 | 71 | 307 | 0.0 | 1.7 | 0.00 | 0.02 | 0.02 | 48 | 1008.3 |
| 20260506010030 | 71 | 0 | 0.0 | 0.9 | 0.00 | 0.02 | 0.02 | 48 | 1008.1 |
| 20260506004528 | 73 | 0 | 0.0 | 4.3 | 0.00 | 0.02 | 0.02 | 45 | 1007.9 |
| 20260506003030 | 74 | 231 | 0.9 | 7.8 | 0.00 | 0.02 | 0.02 | 45 | 1007.8 |
| 20260506001529 | 75 | 293 | 0.9 | 10.4 | 0.00 | 0.02 | 0.02 | 45 | 1007.4 |
| 20260506000045 | 76 | 242 | 6.1 | 12.2 | 0.00 | 0.02 | 0.02 | 43 | 1007.2 |
| 20260505234541 | 77 | 195 | 8.7 | 17.4 | 0.00 | 0.02 | 0.02 | 42 | 1007.0 |
| 20260505233031 | 78 | 203 | 7.8 | 18.2 | 0.00 | 0.02 | 0.02 | 41 | 1006.9 |
| 20260505231529 | 77 | 224 | 4.3 | 10.4 | 0.00 | 0.02 | 0.02 | 43 | 1006.8 |
| 20260505230050 | 77 | 229 | 3.5 | 9.6 | 0.00 | 0.02 | 0.02 | 43 | 1006.5 |
| 20260505224538 | 78 | 239 | 7.0 | 16.5 | 0.00 | 0.02 | 0.02 | 42 | 1006.5 |
| 20260505223028 | 78 | 198 | 6.1 | 14.8 | 0.00 | 0.02 | 0.02 | 41 | 1006.4 |
| 20260505221530 | 78 | 214 | 5.2 | 13.0 | 0.00 | 0.02 | 0.02 | 42 | 1006.6 |
| 20260505220027 | 78 | 236 | 8.7 | 16.5 | 0.00 | 0.02 | 0.02 | 41 | 1006.6 |
| 20260505214531 | 79 | 241 | 9.6 | 17.4 | 0.00 | 0.02 | 0.02 | 39 | 1006.5 |
| 20260505213030 | 79 | 257 | 7.0 | 16.5 | 0.00 | 0.02 | 0.02 | 39 | 1006.4 |
| 20260505211535 | 79 | 242 | 7.0 | 16.5 | 0.00 | 0.02 | 0.02 | 40 | 1006.3 |
| 20260505210031 | 79 | 220 | 8.7 | 17.4 | 0.00 | 0.02 | 0.02 | 39 | 1006.4 |
| 20260505204542 | 79 | 248 | 7.8 | 17.4 | 0.00 | 0.02 | 0.02 | 38 | 1006.3 |
| 20260505203031 | 80 | 221 | 10.4 | 20.0 | 0.00 | 0.02 | 0.02 | 36 | 1006.3 |
| 20260505201531 | 80 | 214 | 12.2 | 20.9 | 0.00 | 0.02 | 0.02 | 36 | 1006.4 |
| 20260505200030 | 79 | 221 | 10.4 | 20.0 | 0.00 | 0.02 | 0.02 | 38 | 1006.5 |
| 20260505194536 | 80 | 164 | 9.6 | 20.9 | 0.00 | 0.02 | 0.02 | 38 | 1006.8 |
| 20260505193027 | 79 | 214 | 10.4 | 18.2 | 0.00 | 0.02 | 0.02 | 39 | 1006.9 |
| 20260505191531 | 80 | 219 | 8.7 | 19.1 | 0.00 | 0.02 | 0.02 | 37 | 1007.0 |
| 20260505190036 | 80 | 213 | 10.4 | 18.2 | 0.00 | 0.02 | 0.02 | 39 | 1007.0 |
| 20260505184533 | 79 | 189 | 12.2 | 18.2 | 0.00 | 0.02 | 0.02 | 40 | 1007.3 |
| 20260505183030 | 80 | 209 | 9.6 | 18.2 | 0.00 | 0.02 | 0.02 | 41 | 1007.6 |
| 20260505181535 | 78 | 240 | 6.1 | 18.2 | 0.00 | 0.02 | 0.02 | 44 | 1007.9 |
| 20260505180040 | 79 | 230 | 10.4 | 15.6 | 0.00 | 0.02 | 0.02 | 45 | 1008.1 |
| 20260505174533 | 78 | 191 | 7.0 | 16.5 | 0.00 | 0.02 | 0.02 | 46 | 1008.1 |
| 20260505173030 | 77 | 187 | 7.8 | 15.6 | 0.00 | 0.02 | 0.02 | 47 | 1008.3 |
| 20260505171528 | 77 | 182 | 8.7 | 16.5 | 0.00 | 0.02 | 0.02 | 47 | 1008.4 |
| 20260505170030 | 77 | 217 | 7.0 | 16.5 | 0.00 | 0.02 | 0.02 | 47 | 1008.4 |
| 20260505164528 | 77 | 233 | 7.0 | 16.5 | 0.00 | 0.02 | 0.02 | 48 | 1008.7 |
| 20260505163028 | 77 | 255 | 7.0 | 13.0 | 0.00 | 0.02 | 0.02 | 47 | 1008.8 |
| 20260505161532 | 76 | 246 | 7.0 | 13.0 | 0.00 | 0.02 | 0.02 | 48 | 1009.2 |
| 20260505153028 | 75 | 191 | 6.1 | 11.3 | 0.00 | 0.02 | 0.02 | 50 | 1009.4 |
| 20260505151534 | 74 | 244 | 7.8 | 15.6 | 0.00 | 0.02 | 0.02 | 50 | 1009.5 |
| 20260505124542 | 64 | 245 | 4.3 | 7.8 | 0.00 | 0.02 | 0.02 | 66 | 1010.3 |
| 20260505123033 | 64 | 257 | 2.6 | 5.2 | 0.00 | 0.02 | 0.02 | 69 | 1010.5 |
| 20260505121559 | 64 | 248 | 1.7 | 4.3 | 0.00 | 0.02 | 0.02 | 71 | 1010.3 |
| 20260505120029 | 64 | 0 | 0.0 | 0.9 | 0.00 | 0.02 | 0.02 | 75 | 1010.3 |
| 20260505114533 | 62 | 0 | 0.0 | 0.0 | 0.00 | 0.02 | 0.02 | 78 | 1010.4 |
| 20260505113032 | 62 | 0 | 0.0 | 1.7 | 0.00 | 0.02 | 0.02 | 80 | 1010.0 |
| 20260505111536 | 59 | 0 | 0.0 | 4.3 | 0.00 | 0.02 | 0.02 | 80 | 1010.0 |
| 20260505101528 | 52 | 0 | 0.0 | 0.0 | 0.00 | 0.02 | 0.02 | 91 | 1009.8 |
| 20260505100038 | 52 | 0 | 0.0 | 0.0 | 0.00 | 0.02 | 0.02 | 90 | 1009.5 |
| 20260505094528 | 52 | 0 | 0.0 | 0.0 | 0.00 | 0.02 | 0.02 | 89 | 1009.3 |
| 20260505093033 | 52 | 0 | 0.0 | 0.0 | 0.00 | 0.02 | 0.02 | 89 | 1009.4 |
| 20260505091535 | 53 | 0 | 0.0 | 0.0 | 0.00 | 0.02 | 0.02 | 88 | 1009.2 |
| 20260505090030 | 53 | 0 | 0.0 | 0.0 | 0.00 | 0.02 | 0.02 | 88 | 1009.3 |
| 20260505084530 | 54 | 0 | 0.0 | 0.0 | 0.00 | 0.02 | 0.02 | 87 | 1009.2 |
| 20260505083041 | 55 | 302 | 0.0 | 0.0 | 0.00 | 0.02 | 0.02 | 86 | 1009.2 |
| 20260505081532 | 55 | 0 | 0.0 | 0.9 | 0.00 | 0.02 | 0.02 | 85 | 1009.2 |
| 20260505080043 | 56 | 318 | 0.0 | 1.7 | 0.00 | 0.02 | 0.02 | 84 | 1009.0 |
| 20260505074527 | 56 | 311 | 0.0 | 1.7 | 0.01 | 0.02 | 0.02 | 84 | 1008.9 |
| 20260505073027 | 57 | 288 | 0.9 | 2.6 | 0.02 | 0.02 | 0.02 | 83 | 1008.8 |
| 20260505071537 | 58 | 290 | 0.9 | 2.6 | 0.02 | 0.02 | 0.02 | 82 | 1008.7 |
| 20260505070030 | 58 | 271 | 0.9 | 1.7 | 0.02 | 0.02 | 0.02 | 83 | 1008.7 |
| 20260505064530 | 61 | 0 | 0.0 | 1.7 | 0.01 | 0.01 | 0.01 | 74 | 1009.2 |
| 20260505063042 | 61 | 0 | 0.0 | 0.0 | 0.00 | 0.00 | 0.00 | 69 | 1008.7 |
| 20260505061533 | 61 | 0 | 0.0 | 0.9 | 0.00 | 0.00 | 0.00 | 66 | 1008.8 |
| 20260505060032 | 62 | 0 | 0.0 | 1.7 | 0.00 | 0.00 | 0.00 | 66 | 1008.9 |
| 20260505054538 | 63 | 269 | 0.0 | 3.5 | 0.00 | 0.00 | 0.00 | 63 | 1009.0 |
| 20260505053028 | 62 | 277 | 0.0 | 0.9 | 0.00 | 0.00 | 0.00 | 62 | 1009.1 |
| 20260505051537 | 62 | 0 | 0.0 | 0.9 | 0.00 | 0.00 | 0.00 | 63 | 1009.1 |
| 20260505041543 | 63 | 278 | 0.0 | 4.3 | 0.00 | 0.00 | 0.00 | 60 | 1008.9 |
| 20260505040034 | 63 | 273 | 0.0 | 3.5 | 0.00 | 0.00 | 0.00 | 59 | 1008.6 |
| 20260505034529 | 64 | 0 | 0.0 | 5.2 | 0.00 | 0.00 | 0.00 | 58 | 1008.6 |